Weather History for KIPT - December, 2012

Change the Weather History Date:

Saturday, December 29, 2012

  Actual Average Record
Temperature  
Mean Temperature 27 °F 28 °F  
Max Temperature 31 °F 35 °F 67 °F (1984)
Min Temperature 23 °F 21 °F -4 °F (1933)
Degree Days  
Heating Degree Days 38 37  
Month to date heating degree days 797 973  
Since 1 July heating degree days 1977 2218  
Cooling Degree Days 0 0  
Month to date cooling degree days 0 0  
Year to date cooling degree days 951 702  
Moisture  
Dew Point 24 °F    
Average Humidity 83    
Maximum Humidity 96    
Minimum Humidity 69    
Precipitation  
Precipitation 0.46 in 0.07 in 1.09 in (2013)
Month to date precipitation 5.61 2.78  
Year to date precipitation 36.24 41.13  
Snow  
Snow 5.10 in - - ()
Month to date snowfall 13.9  
Since 1 July snowfall 15.7  
Snow Depth 8.00 in    
Sea Level Pressure  
Sea Level Pressure 29.75 in    
Wind  
Wind Speed 7 mph (NE)    
Max Wind Speed 15 mph    
Max Gust Speed 21 mph    
Visibility 3 miles    
Events Fog , Snow    
T = Trace of Precipitation, MM = Missing Value Source: NWS Daily Summary

Daily Weather History Graph

Daily Weather History Graph

Search for Another Location

Airport or City:

Trip Planner

Search our weather history database for the weather conditions in past years. The results will help you decide how hot, cold, wet, or windy it might be!

Date:

Astronomy

Dec. 29, 2012 Rise Set
Actual Time 7:32 AM EST 4:47 PM EST
Civil Twilight 7:01 AM EST 5:18 PM EST
Nautical Twilight 6:27 AM EST 5:53 PM EST
Astronomical Twilight 5:53 AM EST 6:26 PM EST
Moon 6:19 PM EST (12/29) 8:04 AM EST (12/29)
Length of Visible Light 10h 16m
Length of Day
9h 14m
Full, 98% of the Moon is Illuminated
Dec 29
Full
Jan 4
Last Quarter
Jan 11
New
Jan 18
First Quarter
Jan 26
Full

Hourly Weather History & Observations

Time (EST) Temp. Windchill Dew Point Humidity Pressure Visibility Wind Dir Wind Speed Gust Speed Precip Events Conditions
12:54 AM 23.0 °F - 19.9 °F 88% 30.02 in 9.0 mi Calm Calm - N/A   Clear
1:54 AM 24.1 °F 19.7 °F 21.0 °F 88% 30.01 in 10.0 mi SE 3.5 mph - N/A   Overcast
2:54 AM 25.0 °F - 21.9 °F 88% 30.00 in 10.0 mi Calm Calm - N/A   Overcast
3:23 AM 24.8 °F - 21.2 °F 86% 29.98 in 10.0 mi Calm Calm - N/A   Overcast
3:36 AM 26.6 °F 21.2 °F 21.2 °F 80% 29.98 in 10.0 mi ENE 4.6 mph - N/A   Overcast
3:54 AM 25.0 °F 20.7 °F 21.0 °F 85% 29.99 in 10.0 mi East 3.5 mph - N/A   Overcast
4:09 AM 24.8 °F 17.9 °F 21.2 °F 86% 29.96 in 2.0 mi NE 5.8 mph - 0.00 in Snow Light Snow
4:24 AM 26.6 °F 22.6 °F 21.2 °F 80% 29.95 in 3.0 mi ESE 3.5 mph - 0.00 in Snow Light Snow
4:31 AM 24.8 °F 19.1 °F 21.2 °F 86% 29.94 in 1.8 mi East 4.6 mph - 0.00 in Snow Light Snow
4:54 AM 25.0 °F 20.7 °F 23.0 °F 92% 29.93 in 1.2 mi East 3.5 mph - 0.01 in Snow Light Snow
5:41 AM 24.8 °F 15.3 °F 23.0 °F 93% 29.89 in 2.0 mi East 9.2 mph - 0.02 in Snow Light Snow
5:49 AM 24.8 °F 19.1 °F 23.0 °F 93% 29.89 in 6.0 mi Variable 4.6 mph - 0.02 in Snow Light Snow
5:54 AM 25.0 °F 17.1 °F 23.0 °F 92% 29.91 in 6.0 mi NNE 6.9 mph - 0.02 in Snow Light Snow
6:25 AM 24.8 °F 16.9 °F 23.0 °F 93% 29.84 in 2.0 mi East 6.9 mph - 0.00 in Snow Light Snow
6:38 AM 24.8 °F 16.1 °F 23.0 °F 93% 29.84 in 4.0 mi East 8.1 mph - 0.01 in Snow Light Snow
6:54 AM 26.6 °F 18.2 °F 23.0 °F 86% 29.84 in 7.0 mi East 8.1 mph - N/A   Overcast
7:19 AM 26.6 °F 18.2 °F 23.0 °F 86% 29.85 in 1.8 mi ENE 8.1 mph - 0.00 in Snow Light Snow
7:28 AM 26.6 °F 16.2 °F 23.0 °F 86% 29.84 in 1.5 mi ENE 11.5 mph - 0.00 in Snow Light Snow
7:35 AM 26.6 °F 16.8 °F 24.8 °F 93% 29.84 in 0.8 mi ENE 10.4 mph - 0.01 in Snow Light Snow
7:49 AM 26.6 °F 16.8 °F 24.8 °F 93% 29.82 in 0.2 mi ENE 10.4 mph - 0.03 in Fog , Snow Snow
7:54 AM 26.1 °F 15.6 °F 24.1 °F 92% 29.84 in 0.2 mi ENE 11.5 mph - 0.03 in Fog , Snow Snow
8:21 AM 26.6 °F 21.2 °F 24.8 °F 93% 29.80 in 0.5 mi ENE 4.6 mph - 0.03 in Fog , Snow Snow
8:35 AM 26.6 °F 22.6 °F 24.8 °F 93% 29.80 in 0.2 mi East 3.5 mph - 0.04 in Fog , Snow Snow
8:54 AM 26.1 °F 20.5 °F 25.0 °F 96% 29.81 in 0.2 mi ENE 4.6 mph - 0.07 in Fog , Snow Snow
9:13 AM 26.6 °F 19.1 °F 24.8 °F 93% 29.78 in 0.5 mi ENE 6.9 mph - 0.01 in Fog , Snow Snow
9:32 AM 26.6 °F 20.0 °F 24.8 °F 93% 29.78 in 0.8 mi ENE 5.8 mph - 0.03 in Snow Light Snow
9:41 AM 26.6 °F 20.0 °F 24.8 °F 93% 29.77 in 1.0 mi ENE 5.8 mph - 0.03 in Snow Light Snow
9:50 AM 26.6 °F 21.2 °F 24.8 °F 93% 29.77 in 0.5 mi ENE 4.6 mph - 0.04 in Fog , Snow Light Snow
9:54 AM 27.0 °F 23.0 °F 25.0 °F 92% 29.79 in 0.5 mi East 3.5 mph - 0.04 in Fog , Snow Snow
10:02 AM 26.6 °F 22.6 °F 24.8 °F 93% 29.77 in 0.2 mi ENE 3.5 mph - 0.02 in Fog , Snow Heavy Snow
10:10 AM 26.6 °F 22.6 °F 24.8 °F 93% 29.76 in 0.2 mi NE 3.5 mph - 0.03 in Fog , Snow Heavy Snow
10:49 AM 26.6 °F 20.0 °F 24.8 °F 93% 29.73 in 0.5 mi ENE 5.8 mph - 0.08 in Fog , Snow Snow
10:54 AM 27.0 °F 19.5 °F 25.0 °F 92% 29.75 in 0.5 mi ENE 6.9 mph - 0.08 in Fog , Snow Snow
10:59 AM 26.6 °F 20.0 °F 24.8 °F 93% 29.72 in 0.2 mi ENE 5.8 mph - 0.01 in Fog , Snow Heavy Snow
11:13 AM 26.6 °F 19.1 °F 24.8 °F 93% 29.71 in 0.5 mi NE 6.9 mph - 0.02 in Fog , Snow Snow
11:21 AM 26.6 °F 18.2 °F 24.8 °F 93% 29.71 in 1.0 mi NE 8.1 mph - 0.03 in Snow Light Snow
11:29 AM 26.6 °F 18.2 °F 24.8 °F 93% 29.70 in 1.2 mi ENE 8.1 mph - 0.03 in Snow Light Snow
11:54 AM 28.0 °F 20.0 °F 25.0 °F 88% 29.70 in 1.5 mi ENE 8.1 mph - 0.04 in Snow Light Snow
12:09 PM 28.4 °F 20.4 °F 24.8 °F 86% 29.67 in 0.8 mi NE 8.1 mph - 0.00 in Snow Light Snow
12:13 PM 28.4 °F 20.4 °F 24.8 °F 86% 29.67 in 0.5 mi NE 8.1 mph - 0.01 in Fog , Snow Snow
12:15 PM 28.4 °F 21.2 °F 26.6 °F 93% 29.66 in 0.2 mi ENE 6.9 mph - 0.01 in Fog , Snow Heavy Snow
12:43 PM 28.4 °F 23.3 °F 26.6 °F 93% 29.64 in 0.5 mi ENE 4.6 mph - 0.05 in Fog , Snow Snow
12:54 PM 28.4 °F 21.2 °F 26.6 °F 93% 29.63 in 0.5 mi ENE 6.9 mph - N/A Fog , Snow Snow
1:40 PM 28.4 °F 20.4 °F 26.6 °F 93% 29.61 in 0.8 mi ENE 8.1 mph - N/A Snow Light Snow
1:54 PM 28.0 °F 19.3 °F 26.1 °F 92% 29.62 in 0.8 mi ENE 9.2 mph - 0.04 in Snow Light Snow
2:06 PM 28.4 °F 21.2 °F 26.6 °F 93% 29.60 in 0.5 mi ENE 6.9 mph - 0.01 in Fog , Snow Snow
2:41 PM 28.4 °F 23.3 °F 26.6 °F 93% 29.59 in 0.8 mi ENE 4.6 mph - 0.03 in Snow Light Snow
2:49 PM 28.4 °F 23.3 °F 26.6 °F 93% 29.59 in 1.0 mi East 4.6 mph - 0.04 in Snow Light Snow
2:54 PM 28.9 °F 25.2 °F 27.0 °F 92% 29.61 in 1.0 mi ENE 3.5 mph - 0.04 in Snow Light Snow
3:23 PM 28.4 °F - 26.6 °F 93% 29.59 in 0.8 mi Calm Calm - 0.01 in Snow Light Snow
3:33 PM 28.4 °F - 28.4 °F 100% 29.59 in 1.0 mi Calm Calm - 0.01 in Snow Light Snow
3:54 PM 28.9 °F - 27.0 °F 92% 29.62 in 1.2 mi Calm Calm - 0.01 in Snow Light Snow
4:02 PM 28.4 °F - 26.6 °F 93% 29.60 in 3.0 mi Calm Calm - 0.01 in Snow Light Snow
4:05 PM 28.4 °F 24.6 °F 26.6 °F 93% 29.60 in 4.0 mi WSW 3.5 mph - 0.01 in   Overcast
4:44 PM 28.4 °F 22.2 °F 26.6 °F 93% 29.60 in 3.0 mi West 5.8 mph - 0.01 in Snow Light Snow
4:48 PM 28.4 °F 22.2 °F 26.6 °F 93% 29.60 in 2.0 mi West 5.8 mph - 0.01 in Snow Light Snow
4:54 PM 28.9 °F 22.8 °F 27.0 °F 92% 29.62 in 1.0 mi West 5.8 mph - 0.01 in Snow Light Snow
5:01 PM 28.4 °F 22.2 °F 26.6 °F 93% 29.60 in 0.8 mi West 5.8 mph - 0.00 in Snow Light Snow
5:10 PM 28.4 °F 20.4 °F 26.6 °F 93% 29.60 in 1.8 mi West 8.1 mph - 0.00 in Snow Light Snow
5:12 PM 28.4 °F 20.4 °F 26.6 °F 93% 29.60 in 2.0 mi West 8.1 mph - 0.00 in Snow Light Snow
5:34 PM 28.4 °F 20.4 °F 26.6 °F 93% 29.60 in 4.0 mi West 8.1 mph - 0.00 in Snow Light Snow
5:54 PM 26.6 °F 17.5 °F 26.6 °F 100% 29.61 in 7.0 mi West 9.2 mph - N/A   Scattered Clouds
6:54 PM 27.0 °F 16.7 °F 25.0 °F 92% 29.67 in 9.0 mi West 11.5 mph - N/A   Scattered Clouds
7:50 PM 28.4 °F 18.0 °F 24.8 °F 86% 29.67 in 10.0 mi West 12.7 mph - N/A   Overcast
7:54 PM 28.9 °F 18.2 °F 25.0 °F 85% 29.69 in 10.0 mi West 13.8 mph - N/A   Overcast
8:54 PM 30.0 °F 20.5 °F 23.0 °F 75% 29.71 in 10.0 mi WNW 11.5 mph - N/A   Overcast
9:52 PM 30.2 °F 20.8 °F 21.2 °F 69% 29.72 in 10.0 mi WNW 11.5 mph - N/A   Overcast
9:54 PM 30.9 °F 22.2 °F 21.9 °F 69% 29.74 in 10.0 mi West 10.4 mph - N/A   Overcast
10:54 PM 30.9 °F 24.3 °F 21.0 °F 67% 29.77 in 10.0 mi WNW 6.9 mph - N/A   Overcast
11:54 PM 30.9 °F 23.5 °F 21.0 °F 67% 29.77 in 10.0 mi WNW 8.1 mph - N/A   Overcast